This demonstration page uses our WeatherBlox Daily Observations layout. Learn more.

Left ArrowRight Arrow

Hourly Observations for May 27, 2022

Temp ( °F °C ) Dew Point ( °F °C ) Humidity (%) Winds ( mph kmh ) Pressure ( in mb ) Visibility ( mi km ) Precip ( " mm )
12:59 am 00:59 Partly Cloudy with Mist and Fog 66 18.9 64 17.8 93 93 SSE 5 7 30.07 1018 6 10 0.00 0.00
1:59 am 01:59 Clear 66 18.9 65 18.3 96 96 S 7 11 30.05 1018 7 11 0.00 0.00
2:59 am 02:59 Clear 68 20 66 18.9 93 93 S 5 7 30.04 1017 8 13 0.00 0.00
3:59 am 03:59 Partly Cloudy 68 20 66 18.9 93 93 S 7 11 30.02 1017 7 11 0.00 0.00
4:31 am 04:31 Mostly Cloudy 68 20 67 19.4 96 96 VRB 7 11 30.02 1017 7 11 0.00 0.00
4:59 am 04:59 Cloudy with Mist and Fog 70 21.1 68 20 93 93 S 8 13 30.01 1016 6 10 0.00 0.00
5:36 am 05:36 Cloudy with Mist and Fog 71 21.7 68 20 90 90 SSW 7 11 30.01 1016 5 8 0.00 0.00
5:59 am 05:59 Cloudy with Mist and Fog 71 21.7 68 20 90 90 S 9 15 30.01 1016 6 10 0.00 0.00
6:59 am 06:59 Cloudy with Mist and Fog 70 21.1 69 20.6 97 97 S 8 13 30.00 1016 6 10 0.00 0.00
7:38 am 07:38 Cloudy 70 21.1 69 20.6 97 97 S 9 15 29.99 1016 8 13 0.00 0.00
7:59 am 07:59 Cloudy 72 22.2 70 21.1 94 94 S 8 13 29.99 1016 9 14 0.00 0.00
8:19 am 08:19 Cloudy 72 22.2 70 21.1 94 94 S 13 20 29.99 1016 9 14 0.00 0.00
8:59 am 08:59 Cloudy 75 23.9 72 22.2 90 90 S 12 19 29.98 1015 10 16 0.00 0.00
9:59 am 09:59 Mostly Cloudy 79 26.1 73 22.8 82 82 S 13 20 29.97 1015 10 16 0.00 0.00
10:59 am 10:59 Cloudy 81 27.2 71 21.7 72 72 SSW 8 13 29.95 1014 10 16 0.00 0.00
11:30 am 11:30 Cloudy with Thunderstorms 81 27.2 71 21.7 72 72 SSW 9 15 29.94 1014 5 8 0.01 0.25
11:49 am 11:49 Cloudy with Thunderstorms 81 27.2 72 22.2 74 74 SSE 12 19 29.94 1014 4 6 0.01 0.25
11:51 am 11:51 Cloudy with Thunderstorms 81 27.2 72 22.2 74 74 S 17 28 29.95 1014 2 2 0.01 0.25
11:59 am 11:59 Cloudy with Thunderstorms 79 26.1 70 21.1 74 74 S 6 9 29.93 1014 1 2 0.02 0.51
12:01 pm 12:01 Cloudy with Thunderstorms 79 26.1 72 22.2 79 79 SSE 5 7 29.93 1014 2 3 0.00 0.00
12:08 pm 12:08 Cloudy with Thunderstorms 79 26.1 72 22.2 79 79 S 7 11 29.93 1014 10 16 0.00 0.00
12:21 pm 12:21 Cloudy with Thunderstorms 79 26.1 72 22.2 79 79 SW 20 31 29.95 1014 1 2 0.01 0.25
12:33 pm 12:33 Cloudy with Thunderstorms 79 26.1 72 22.2 79 79 SW 3 6 29.94 1014 0 0 0.01 0.25
12:38 pm 12:38 Cloudy with Strong Thunderstorms 79 26.1 72 22.2 79 79 WSW 3 6 29.94 1014 1 1 0.01 0.25
12:40 pm 12:40 Cloudy with Strong Thunderstorms 77 25 66 18.9 69 69 WSW 5 7 29.94 1014 5 8 0.01 0.25
12:49 pm 12:49 Cloudy with Thunderstorms 77 25 66 18.9 69 69 SW 10 17 29.94 1014 2 3 0.02 0.51
12:52 pm 12:52 Cloudy with Thunderstorms 79 26.1 68 20 69 69 SW 8 13 29.94 1014 4 6 0.02 0.51
12:59 pm 12:59 Cloudy with Thunderstorms 79 26.1 68 20 69 69 S 9 15 29.95 1014 7 11 0.02 0.51
1:59 pm 13:59 Cloudy with Thunderstorms 70 21.1 68 20 93 93 SSW 9 15 29.95 1014 6 10 0.01 0.25
2:59 pm 14:59 Cloudy 72 22.2 69 20.6 91 91 SSW 3 6 29.91 1013 10 16 0.02 0.51
3:59 pm 15:59 Cloudy 73 22.8 70 21.1 90 90 S 6 9 29.88 1012 10 16 0.00 0.00
4:59 pm 16:59 Cloudy 75 23.9 69 20.6 82 82 S 8 13 29.84 1011 10 16 0.00 0.00
5:59 pm 17:59 Cloudy 77 25 69 20.6 77 77 S 14 22 29.84 1010 10 16 0.00 0.00
6:48 pm 18:48 Cloudy 76 24.4 69 20.6 79 79 S 13 20 29.83 1010 10 16 0.00 0.00
6:59 pm 18:59 Mostly Cloudy 76 24.4 68 20 77 77 S 13 20 29.83 1010 10 16 0.00 0.00
7:59 pm 19:59 Mostly Cloudy 75 23.9 66 18.9 74 74 S 12 19 29.81 1010 10 16 0.00 0.00
8:59 pm 20:59 Mostly Cloudy 74 23.3 65 18.3 74 74 SSW 10 17 29.82 1010 10 16 0.00 0.00
9:59 pm 21:59 Mostly Cloudy 73 22.8 66 18.9 79 79 SSW 10 17 29.83 1010 10 16 0.00 0.00
10:59 pm 22:59 Mostly Cloudy 72 22.2 66 18.9 82 82 SSW 10 17 29.83 1010 10 16 0.00 0.00
11:59 pm 23:59 Mostly Cloudy 72 22.2 66 18.9 82 82 SSW 9 15 29.83 1010 10 16 0.00 0.00

Powered by AerisWeather